This is the latest recevied weather packets stored in our database for station/object N5PRN. If no packets are shown the sender has not sent any weather packets the latest 10 day(s).
| Time | Temp. | Humidity | Pressure | Rain* | Wind** | Luminosity | Snow |
|---|---|---|---|---|---|---|---|
| 1778089745 | 25.56° C | 93% | 1011.8 hPa | 0 mm | - | 314 W/m² | - |
| 1778089443 | 25.56° C | 93% | 1012 hPa | 0 mm | - | 115 W/m² | - |
| 1778089140 | 26.11° C | 92% | 1012 hPa | 0 mm | - | 57 W/m² | - |
| 1778088837 | 26.67° C | 91% | 1012 hPa | 0 mm | - | 74 W/m² | - |
| 1778088534 | 26.67° C | 90% | 1012 hPa | 0 mm | - | 219 W/m² | - |
| 1778088230 | 26.67° C | 91% | 1011.9 hPa | 0 mm | - | 313 W/m² | - |
| 1778087928 | 26.11° C | 92% | 1012.2 hPa | 0 mm | - | 264 W/m² | - |
| 1778087625 | 26.11° C | 92% | 1012.2 hPa | 0 mm | - | 318 W/m² | - |
| 1778087322 | 26.11° C | 94% | 1012.3 hPa | 0 mm | - | 252 W/m² | - |
| 1778087018 | 25.56° C | 94% | 1012.5 hPa | 0 mm | - | 249 W/m² | - |
| 1778086712 | 25.56° C | 93% | 1012.3 hPa | 0 mm | - | 223 W/m² | - |
| 1778086409 | 25° C | 95% | 1012.2 hPa | 0 mm | - | 296 W/m² | - |
| 1778086105 | 25° C | 95% | 1012.2 hPa | 0 mm | - | 97 W/m² | - |
| 1778085802 | 25.56° C | 95% | 1012.3 hPa | 0 mm | - | 123 W/m² | - |
| 1778085500 | 25.56° C | 95% | 1012.3 hPa | 0 mm | - | 219 W/m² | - |
| 1778085194 | 25° C | 95% | 1012.3 hPa | 0 mm | - | 115 W/m² | - |
| 1778084890 | 25.56° C | 95% | 1012.6 hPa | 0 mm | - | 148 W/m² | - |
| 1778084588 | 25° C | 96% | 1012.6 hPa | 0 mm | - | 144 W/m² | - |
| 1778084285 | 25.56° C | 95% | 1012.5 hPa | 0 mm | - | 140 W/m² | - |
| 1778083983 | 25° C | 95% | 1012.4 hPa | 0 mm | - | 216 W/m² | - |
| 1778083680 | 25° C | 97% | 1012.3 hPa | 0 mm | - | 257 W/m² | - |
| 1778083376 | 25° C | 96% | 1012.5 hPa | 0 mm | - | 163 W/m² | - |
| 1778083076 | 25° C | 97% | 1012.6 hPa | 0 mm | - | 275 W/m² | - |
| 1778082772 | 24.44° C | 98% | 1012.4 hPa | 0 mm | - | 200 W/m² | - |
| 1778081644 | 24.44° C | 98% | 1012.2 hPa | 0 mm | - | 61 W/m² | - |
* Rain latest hour (hover to see other rain measurements)
** Current wind speed in m/s (hover to see current wind gust speed)